Back to catalog

TURKSAT 3U

AliveCommunicationsSSO
NORAD 39152·PAYLOAD·🇹🇷 Turkey

Launched Apr 26, 2013 from Jiuquan Satellite Launch Center

Loading…

Next Passes (next 24 hours)

TLE

FreshSource: Space-Track

Epoch: Sep 13, 2026, 04:45 UTC

1 39152U 13018C   26256.19848204  .00002816  00000-0  25038-3 0  9998
2 39152  97.7914 346.6763 0012559 159.7535 200.4187 14.96869810724255

Track TURKSAT 3U in real time with AllMySat

Download on the App Store